パンスターズ彗星

P/2014 M4 ( PanSTARRS )

English version
Home page
Updated on June 11, 2016

---------------------------------------------------------------------

・ プロフィール

発見日 2014年6月30日
発見光度 21.2等
発見者 Pan-STARRS 1 telescope (Haleakala)

・ 写真集

・ 軌道要素

Epoch 2014 Dec. 9.0 TT = JDT 2457000.5
T 2014 Dec. 27.64477 TT                                 MPCW
q   2.3511767            (2000.0)            P               Q
n   0.07033175     Peri.  145.30104     +0.63705219     -0.76862523
a   5.8125729      Node   265.05473     +0.69334365     +0.60434325
e   0.5955016      Incl.    3.34528     +0.33680721     +0.20972482
P  14.0
From 70 observations 2014 June 30-Nov. 18, mean residual 0".5.

・ 光度変化

        m1 = 13.5 + 5 logΔ + 10.0 log r

---------------------------------------------------------------------

軌道要素はM.P.E.C. 2014-Y44に掲載されたものです。
光度グラフはComet for Windowsで作成したものです。

---------------------------------------------------------------------

Copyright(C) Seiichi Yoshida (comet@aerith.net). All rights reserved.